Weather reports worldwide

Advertisment
Shoreham Airport, United Kingdom (3876): temperature & dewpoint: 13.02.2019 14:00:00 - 19.02.2019 14:00:00 (GMT)Shoreham Airport, United Kingdom (3876): wind speed: 13.02.2019 14:00:00 - 19.02.2019 14:00:00 (GMT)Shoreham Airport, United Kingdom (3876): wind direction: 13.02.2019 14:00:00 - 19.02.2019 14:00:00 (GMT)Shoreham Airport, United Kingdom (3876): reduced air pressure: 13.02.2019 14:00:00 - 19.02.2019 14:00:00 (GMT)Shoreham Airport, United Kingdom (3876): visibility: 13.02.2019 14:00:00 - 19.02.2019 14:00:00 (GMT)Shoreham Airport, United Kingdom (3876): precipitation: 13.02.2019 14:00:00 - 19.02.2019 14:00:00 (GMT)
Date & Time tt [°C] td [°C] ff [km/h] ff [kn] dd ppp [hPa] vv [km] rr [mm]
19.02.2019 14:00:00 - - - - - - - -
19.02.2019 13:00:00 9,6 7,0 21 11 SW 1020,5 10 0,0
19.02.2019 12:00:00 10,0 7,1 16 9 SSW 1020,8 10 0,0
19.02.2019 11:00:00 9,5 6,3 21 11 WSW 1020,7 10 0,0
19.02.2019 10:00:00 7,7 7,7 8 4 WSW 1020,7 10 0,2
19.02.2019 09:00:00 3,5 3,5 4 2 S 1020,4 9 0,0
19.02.2019 08:00:00 -1,5 -1,6 4 2 NW 1020,1 9 0,0
19.02.2019 07:00:00 -1,8 -2,0 5 3 W 1019,3 - 0,0
19.02.2019 06:00:00 -0,6 -0,8 8 4 W 1019,0 - 0,0
19.02.2019 05:00:00 0,4 0,1 5 3 WSW 1018,8 - 0,0
19.02.2019 04:00:00 2,5 2,4 4 2 W 1018,5 - 0,0
19.02.2019 03:00:00 2,6 2,6 8 4 WSW 1018,5 - 0,0
19.02.2019 02:00:00 1,1 0,8 5 3 WNW 1018,2 - 0,0
19.02.2019 01:00:00 2,2 2,0 5 3 W 1018,0 - 0,0
19.02.2019 00:00:00 3,7 3,5 8 4 WSW 1017,6 - 0,0
18.02.2019 23:00:00 3,0 2,7 8 4 WSW 1017,6 - 0,0
18.02.2019 22:00:00 4,9 4,6 4 2 WNW 1017,3 - 0,0
18.02.2019 21:00:00 6,3 5,1 8 4 WSW 1016,9 - 0,0
18.02.2019 20:00:00 8,3 7,4 13 7 WSW 1016,6 10 0,0
18.02.2019 19:00:00 8,1 7,3 18 10 SW 1016,2 10 0,0
18.02.2019 18:00:00 7,8 7,0 13 7 SW 1015,8 10 0,0
18.02.2019 17:00:00 7,8 7,0 13 7 SW 1015,4 10 0,0
18.02.2019 16:00:00 7,9 7,2 9 5 SW 1015,4 10 0,4
18.02.2019 15:00:00 8,1 6,7 9 5 WSW 1015,4 10 0,2
18.02.2019 14:00:00 9,1 7,1 15 8 WSW 1015,5 10 0,0
18.02.2019 13:00:00 9,3 7,8 16 9 SW 1015,9 10 0,0
18.02.2019 12:00:00 9,6 8,7 16 9 SSW 1016,1 10 0,0
18.02.2019 11:00:00 9,2 8,5 16 9 S 1016,1 10 0,0
18.02.2019 10:00:00 8,8 8,1 11 6 SSW 1016,0 9 0,0
18.02.2019 09:00:00 8,7 8,3 15 8 SSW 1016,3 9 0,0
18.02.2019 08:00:00 8,2 8,1 9 5 SW 1016,3 9 0,0
18.02.2019 07:00:00 5,2 4,9 4 2 W 1016,0 - 0,0
18.02.2019 06:00:00 6,9 6,7 5 3 SSE 1015,9 - 0,0
18.02.2019 05:00:00 8,3 7,7 9 5 S 1016,1 - 0,0
18.02.2019 04:00:00 8,8 8,2 13 7 S 1016,2 - 0,0
18.02.2019 03:00:00 9,0 8,1 13 7 S 1016,5 - 0,0
18.02.2019 02:00:00 7,1 6,2 4 2 ESE 1016,7 - 0,0
18.02.2019 01:00:00 8,7 7,9 4 2 SSW 1017,1 - 0,0
18.02.2019 00:00:00 9,2 8,2 9 5 S 1017,0 - 0,0
17.02.2019 23:00:00 9,3 8,7 8 4 SSW 1016,8 - 0,0
17.02.2019 22:00:00 9,2 8,4 8 4 SSE 1016,6 - 0,0
17.02.2019 21:00:00 9,5 8,5 11 6 SSW 1016,7 - 0,2
17.02.2019 20:00:00 10,1 8,6 13 7 S 1016,4 - 0,0
17.02.2019 19:00:00 9,5 7,9 5 3 S 1016,6 9 0,0
17.02.2019 18:00:00 10,1 8,3 11 6 S 1016,4 9 0,0
17.02.2019 17:00:00 9,7 8,0 11 6 S 1016,1 9 0,0
17.02.2019 16:00:00 9,6 7,8 15 8 SSW 1016,1 9 0,0
17.02.2019 15:00:00 10,6 7,8 8 4 S 1016,0 7 0,0
17.02.2019 14:00:00 11,2 7,5 13 7 SSW 1015,8 10 0,0
17.02.2019 13:00:00 11,2 7,1 11 6 SSW 1016,1 10 0,0
17.02.2019 12:00:00 10,9 6,7 16 9 SSW 1016,2 10 -
17.02.2019 11:00:00 11,1 6,7 15 8 S 1016,3 10 -
17.02.2019 10:00:00 10,7 6,5 11 6 SE 1015,9 10 0,0
17.02.2019 09:00:00 9,2 6,9 11 6 ESE 1016,0 10 0,0
17.02.2019 08:00:00 7,4 6,1 13 7 ESE 1016,0 - 0,0
17.02.2019 07:00:00 5,9 4,9 8 4 E 1016,3 - 0,0
17.02.2019 06:00:00 7,1 6,2 13 7 ESE 1016,5 - 0,0
17.02.2019 05:00:00 7,5 6,4 16 9 ESE 1017,1 - 0,0
17.02.2019 04:00:00 7,5 6,7 16 9 ESE 1017,6 - 0,0
17.02.2019 03:00:00 7,4 6,5 15 8 ESE 1018,7 - 0,0
17.02.2019 02:00:00 7,2 6,4 15 8 ESE 1019,4 - 0,0
17.02.2019 01:00:00 7,1 6,8 13 7 ESE 1020,1 - 0,0
17.02.2019 00:00:00 3,4 2,8 4 2 E 1020,9 - 0,0
16.02.2019 23:00:00 6,1 5,7 9 5 ESE 1021,1 - 0,0
16.02.2019 22:00:00 7,1 6,7 11 6 ESE 1021,7 - 0,0
16.02.2019 21:00:00 7,2 6,3 5 3 SE 1022,1 - 0,0
16.02.2019 20:00:00 9,0 8,1 9 5 SSW 1022,5 4,5 0,0
16.02.2019 19:00:00 9,0 8,2 4 2 S 1023,0 4,5 0,0
16.02.2019 18:00:00 9,2 8,2 4 2 S 1022,9 - 0,0
16.02.2019 17:00:00 9,2 8,2 2 1 SSW 1022,8 4,5 0,0
16.02.2019 16:00:00 9,4 8,3 8 4 S 1023,1 3,8 0,0
16.02.2019 15:00:00 9,5 8,7 11 6 S 1023,5 3,5 0,0
16.02.2019 14:00:00 9,3 8,3 9 5 S 1023,9 3,8 0,0
16.02.2019 13:00:00 9,5 8,8 15 8 S 1024,3 4,2 0,0
16.02.2019 12:00:00 9,6 9,1 11 6 S 1024,8 4,2 0,0
16.02.2019 11:00:00 9,5 9,2 5 3 S 1024,8 4,2 0,0
16.02.2019 10:00:00 9,0 8,9 4 2 SE 1024,7 3,8 0,0
16.02.2019 09:00:00 8,4 8,4 5 3 ESE 1024,3 3,5 0,0
16.02.2019 08:00:00 6,9 6,9 5 3 E 1024,3 - 0,0
16.02.2019 07:00:00 2,0 1,9 4 2 ESE 1023,8 - 0,0
16.02.2019 06:00:00 3,4 3,4 4 2 ESE 1023,5 - 0,0
16.02.2019 05:00:00 2,3 2,3 2 1 E 1023,3 - 0,0
16.02.2019 04:00:00 1,5 1,1 5 3 SSE 1023,1 - 0,0
16.02.2019 03:00:00 3,1 3,0 2 1 NE 1023,4 - 0,0
16.02.2019 02:00:00 3,8 3,5 2 1 WSW 1023,9 - 0,0
16.02.2019 01:00:00 5,5 5,3 9 5 SSW 1023,9 - 0,0
16.02.2019 00:00:00 4,2 3,9 2 1 ESE 1024,3 - 0,0
15.02.2019 23:00:00 1,6 1,1 5 3 ESE 1024,6 - 0,0
15.02.2019 22:00:00 4,3 4,2 5 3 ESE 1024,8 - 0,0
15.02.2019 21:00:00 3,5 2,4 8 4 E 1024,9 - 0,0
15.02.2019 20:00:00 6,0 4,9 9 5 E 1025,2 - 0,0
15.02.2019 19:00:00 5,7 5,0 9 5 E 1025,3 - 0,0
15.02.2019 18:00:00 7,0 6,2 11 6 E 1025,7 - 0,0
15.02.2019 17:00:00 7,8 6,4 11 6 ESE 1025,7 - 0,0
15.02.2019 16:00:00 9,1 6,8 15 8 ESE 1025,6 - 0,0
15.02.2019 15:00:00 9,8 7,0 9 5 ESE 1026,3 8 0,0
15.02.2019 14:00:00 10,3 7,4 11 6 ESE 1026,8 8 0,0
15.02.2019 13:00:00 10,4 7,4 11 6 ESE 1027,4 8 0,0
15.02.2019 12:00:00 10,2 7,7 11 6 ESE 1027,9 8 0,0
15.02.2019 11:00:00 9,9 8,0 13 7 ESE 1028,3 8 0,0
15.02.2019 10:00:00 8,9 7,2 13 7 ESE 1028,5 8 0,0
15.02.2019 09:00:00 7,4 7,0 13 7 ENE 1028,3 10 0,0
15.02.2019 08:00:00 1,7 1,2 5 3 ENE 1028,7 10 0,0
15.02.2019 07:00:00 3,8 3,5 5 3 E 1028,5 - 0,0
15.02.2019 06:00:00 3,2 2,8 11 6 E 1028,6 - 0,0
15.02.2019 05:00:00 3,8 3,3 8 4 E 1028,5 - 0,0
15.02.2019 04:00:00 4,0 3,5 11 6 E 1028,8 - 0,0
15.02.2019 03:00:00 3,4 2,9 8 4 E 1029,1 - 0,0
15.02.2019 02:00:00 3,4 2,5 8 4 E 1029,5 - 0,0
15.02.2019 01:00:00 4,5 3,8 5 3 E 1029,8 - 0,0
15.02.2019 00:00:00 4,8 4,0 8 4 E 1029,9 - 0,0
14.02.2019 23:00:00 6,5 4,5 9 5 E 1030,0 - 0,0
14.02.2019 22:00:00 6,1 4,3 11 6 E 1030,1 - 0,0
14.02.2019 21:00:00 3,6 1,9 5 3 ENE 1030,1 - 0,0
14.02.2019 20:00:00 4,2 2,3 5 3 ENE 1030,4 - 0,0
14.02.2019 19:00:00 4,7 2,9 4 2 ENE 1030,6 - 0,0
14.02.2019 18:00:00 6,5 5,0 13 7 E 1030,8 - 0,0
14.02.2019 17:00:00 7,3 5,9 13 7 ESE 1030,8 7 0,0
14.02.2019 16:00:00 8,1 6,2 15 8 ESE 1031,1 7 0,0
14.02.2019 15:00:00 8,9 6,3 16 9 ESE 1031,4 9 0,0
14.02.2019 14:00:00 9,1 6,4 18 10 ESE 1031,9 7 0,0
14.02.2019 13:00:00 9,5 6,2 13 7 ESE 1032,6 8 0,0
14.02.2019 12:00:00 9,4 6,9 13 7 ESE 1033,3 7 0,0
14.02.2019 11:00:00 9,0 6,5 11 6 ESE 1033,3 6 0,0
14.02.2019 10:00:00 8,0 7,8 11 6 ESE 1033,2 6 0,2
14.02.2019 09:00:00 3,9 3,9 4 2 E 1033,0 6 0,0
14.02.2019 08:00:00 -0,5 -0,6 5 3 NE 1032,9 10 0,0
14.02.2019 07:00:00 -0,6 -0,7 5 3 E 1032,8 - 0,0
14.02.2019 06:00:00 -1,3 -1,4 5 3 E 1032,7 - 0,0
14.02.2019 05:00:00 -0,5 -0,6 4 2 ESE 1032,9 - 0,0
14.02.2019 04:00:00 -0,9 -1,1 4 2 SE 1032,8 - 0,0
14.02.2019 03:00:00 -0,7 -1,0 2 1 SE 1032,9 - 0,0
14.02.2019 02:00:00 2,7 2,6 2 1 ESE 1033,1 - 0,0
14.02.2019 01:00:00 0,0 -0,6 4 2 SSW 1033,3 - 0,0
14.02.2019 00:00:00 3,0 2,0 8 4 E 1033,4 - 0,0
13.02.2019 23:00:00 5,8 4,8 8 4 ESE 1033,2 - 0,0
13.02.2019 22:00:00 6,1 4,7 9 5 SE 1033,4 - 0,0
13.02.2019 21:00:00 6,8 4,9 9 5 SE 1033,3 - 0,0
13.02.2019 20:00:00 6,6 4,6 11 6 SSE 1033,4 10 0,0
13.02.2019 19:00:00 7,1 5,4 16 9 SSE 1033,2 10 0,0
13.02.2019 18:00:00 6,9 5,6 11 6 SSE 1033,4 9 0,0
13.02.2019 17:00:00 7,2 5,4 8 4 S 1033,4 10 0,0
13.02.2019 16:00:00 8,7 5,9 11 6 S 1033,5 10 0,0
13.02.2019 15:00:00 8,8 6,6 13 7 S 1033,5 9 0,0
13.02.2019 14:00:00 8,9 6,7 15 8 S 1034,1 10 0,0

tt = temperature
td = dewpoint
ff = wind speed
dd = wind direction
ppp = reduced air pressure
vv = visibility
rr = precipitation

Next stations